Weather History for Tacoma, WA

Change the Weather History Date:

Sunday, March 17, 2013

  Actual Average Record
Temperature  
Mean Temperature 40 °F -  
Max Temperature 45 °F 51 °F 66 °F (1972)
Min Temperature 36 °F 35 °F 26 °F (1955)
Degree Days  
Heating Degree Days 24    
Moisture  
Dew Point 35 °F    
Average Humidity 82    
Maximum Humidity 93    
Minimum Humidity 61    
Precipitation  
Precipitation 0.06 in - - ()
Sea Level Pressure  
Sea Level Pressure 30.18 in    
Wind  
Wind Speed 9 mph (SW)    
Max Wind Speed 20 mph    
Max Gust Speed 26 mph    
Visibility 10 miles    
Events Rain    
Averages and records for this station are not official NWS values.
T = Trace of Precipitation, MM = Missing Value Source: NWS Daily Summary

Daily Weather History Graph

Daily Weather History Graph

Search for Another Location

Airport:

Trip Planner

Search our weather history database for the weather conditions in past years. The results will help you decide how hot, cold, wet, or windy it might be!

Date:

Astronomy

Mar. 17, 2013 Rise Set
Actual Time 7:18 AM PDT 7:18 PM PDT
Civil Twilight 6:47 AM PDT 7:49 PM PDT
Nautical Twilight 6:12 AM PDT 8:25 PM PDT
Astronomical Twilight 5:35 AM PDT 9:01 PM PDT
Moon 10:13 AM PDT (3/17) 12:52 AM PDT (3/17)
Length of Visible Light 13h 01m
Length of Day
12h 00m
Waxing Crescent, 32% of the Moon is Illuminated
Mar 17
Waxing Crescent
Mar 19
First Quarter
Mar 27
Full
Apr 2
Last Quarter
Apr 10
New

Hourly Weather History & Observations

Time (PDT) Temp. Windchill Dew Point Humidity Pressure Visibility Wind Dir Wind Speed Gust Speed Precip Events Conditions
12:30 AM 37.4 °F 31.4 °F 35.6 °F 93% 30.01 in 10.0 mi SSW 8.1 mph - N/A   Mostly Cloudy
12:58 AM 37.4 °F - 35.6 °F 93% 30.04 in 10.0 mi Calm Calm - N/A   Mostly Cloudy
1:13 AM 37.4 °F 30.3 °F 35.6 °F 93% 30.02 in 10.0 mi SSW 10.4 mph 19.6 mph N/A   Scattered Clouds
1:58 AM 38.1 °F 33.7 °F 35.1 °F 89% 30.05 in 10.0 mi SSW 5.8 mph - N/A   Partly Cloudy
2:28 AM 37.4 °F 34.9 °F 35.6 °F 93% 30.04 in 10.0 mi SE 3.5 mph - N/A   Mostly Cloudy
2:58 AM 37.4 °F 28.5 °F 35.6 °F 93% 30.07 in 10.0 mi SSW 15.0 mph - N/A   Scattered Clouds
3:58 AM 38.3 °F 29.7 °F 34.9 °F 87% 30.08 in 10.0 mi SW 15.0 mph - N/A   Clear
4:58 AM 37.9 °F 29.2 °F 33.8 °F 85% 30.10 in 10.0 mi SW 15.0 mph 19.6 mph N/A   Clear
5:58 AM 38.3 °F 29.3 °F 32.7 °F 80% 30.12 in 10.0 mi SW 16.1 mph 23.0 mph N/A   Clear
6:58 AM 36.9 °F 29.6 °F 33.4 °F 87% 30.16 in 10.0 mi SSW 10.4 mph - N/A   Clear
7:58 AM 37.4 °F 30.3 °F 33.8 °F 87% 30.18 in 10.0 mi SW 10.4 mph 20.7 mph N/A   Partly Cloudy
8:58 AM 38.7 °F 32.9 °F 34.0 °F 83% 30.21 in 10.0 mi SSW 8.1 mph - N/A   Clear
9:58 AM 40.1 °F 34.1 °F 34.9 °F 82% 30.23 in 10.0 mi South 9.2 mph 19.6 mph N/A   Partly Cloudy
10:58 AM 42.3 °F 34.8 °F 35.4 °F 77% 30.23 in 10.0 mi SW 15.0 mph - N/A   Scattered Clouds
11:58 AM 44.2 °F 37.0 °F 34.7 °F 69% 30.23 in 10.0 mi SW 16.1 mph 24.2 mph N/A   Partly Cloudy
12:58 PM 45.0 °F 39.7 °F 34.2 °F 66% 30.24 in 10.0 mi SW 10.4 mph 24.2 mph N/A   Mostly Cloudy
1:08 PM 44.6 °F 37.4 °F 32.0 °F 61% 30.22 in 10.0 mi SW 16.1 mph 19.6 mph N/A Rain Light Rain
1:11 PM 44.6 °F 36.9 °F 33.8 °F 66% 30.22 in 10.0 mi WSW 18.4 mph - N/A Rain Light Rain
1:16 PM 42.8 °F 34.3 °F 35.6 °F 76% 30.23 in 6.0 mi WSW 19.6 mph - N/A Rain Light Rain
1:51 PM 41.0 °F - 39.2 °F 93% 30.22 in 10.0 mi SSW 2.3 mph - N/A Rain Light Rain
1:55 PM 41.0 °F - 39.2 °F 93% 30.22 in 10.0 mi SSW 2.3 mph - N/A   Scattered Clouds
1:58 PM 41.0 °F - 39.0 °F 93% 30.24 in 10.0 mi SW 2.3 mph - 0.03 in   Scattered Clouds
2:54 PM 42.8 °F 38.0 °F 37.4 °F 81% 30.21 in 10.0 mi SW 8.1 mph - N/A Rain Light Rain
2:58 PM 43.3 °F 39.9 °F 37.4 °F 80% 30.23 in 10.0 mi WSW 5.8 mph - 0.00 in Rain Light Rain
3:03 PM 42.8 °F 38.0 °F 37.4 °F 81% 30.21 in 6.0 mi WSW 8.1 mph 18.4 mph N/A Rain Light Rain
3:04 PM 42.8 °F 38.6 °F 37.4 °F 81% 30.21 in 6.0 mi WSW 6.9 mph 18.4 mph N/A Rain Rain
3:19 PM 41.0 °F - 39.2 °F 93% 30.20 in 10.0 mi Calm Calm - N/A Rain Light Rain
3:20 PM 41.0 °F - 37.4 °F 87% 30.20 in 10.0 mi Calm Calm - N/A   Overcast
3:55 PM 42.8 °F 37.5 °F 39.2 °F 87% 30.21 in 10.0 mi West 9.2 mph - N/A   Overcast
3:58 PM 42.6 °F 37.2 °F 38.7 °F 86% 30.23 in 9.0 mi WNW 9.2 mph 17.3 mph 0.03 in Rain Light Rain
4:10 PM 42.8 °F - 39.2 °F 87% 30.20 in 10.0 mi WNW 1.2 mph - N/A   Overcast
4:58 PM 44.4 °F 40.0 °F 37.6 °F 77% 30.22 in 10.0 mi SW 8.1 mph - 0.00 in   Overcast
5:58 PM 43.3 °F 39.2 °F 32.2 °F 65% 30.22 in 10.0 mi WSW 6.9 mph - N/A   Overcast
6:19 PM 42.8 °F 34.5 °F 33.8 °F 70% 30.20 in 10.0 mi West 18.4 mph 26.5 mph N/A   Light Drizzle
6:29 PM 41.0 °F 33.9 °F 35.6 °F 81% 30.20 in 10.0 mi WSW 12.7 mph - N/A   Light Drizzle
6:32 PM 41.0 °F 35.2 °F 35.6 °F 81% 30.20 in 10.0 mi SW 9.2 mph - N/A   Overcast
6:37 PM 41.0 °F 34.7 °F 33.8 °F 76% 30.20 in 10.0 mi SW 10.4 mph - N/A   Overcast
6:58 PM 41.7 °F 34.8 °F 33.8 °F 73% 30.21 in 10.0 mi SW 12.7 mph 18.4 mph 0.00 in   Overcast
7:58 PM 41.0 °F 34.3 °F 32.9 °F 73% 30.22 in 10.0 mi SW 11.5 mph 19.6 mph N/A   Overcast
8:08 PM 41.0 °F 35.8 °F 32.0 °F 70% 30.20 in 10.0 mi SW 8.1 mph - N/A   Overcast
8:58 PM 40.1 °F 34.7 °F 33.8 °F 78% 30.23 in 10.0 mi SSW 8.1 mph - N/A   Overcast
9:58 PM 38.5 °F 30.7 °F 34.0 °F 84% 30.23 in 10.0 mi SSW 12.7 mph - N/A   Overcast
10:58 PM 38.5 °F 31.1 °F 34.7 °F 86% 30.24 in 10.0 mi SSW 11.5 mph - N/A   Overcast
11:14 PM 39.2 °F 33.0 °F 35.6 °F 87% 30.22 in 10.0 mi SSW 9.2 mph - N/A   Overcast
11:29 PM 39.2 °F 32.0 °F 35.6 °F 87% 30.22 in 10.0 mi South 11.5 mph - N/A   Overcast
11:58 PM 38.1 °F 31.2 °F 34.9 °F 88% 30.23 in 10.0 mi SSW 10.4 mph - N/A   Overcast